[[{"header":{"parameterUnit":"m.s-1","parameterCategory":2,"la1":30.2991,"la2":30.254,"lo1":-89.0895,"lo2":-89.0444,"dy":0.0017,"dx":0.0017,"nx":28,"ny":28,"refTime":"2025-12-05T03:00:00:Z","depth":"0","parameterNumber":2,"parameterNumberName":"U-component_of_CURRENTS"},"data":[0,0,0,0,0,0,0,0,0,0,0,0,0,0,0,0,0,0,0,0,0,0,0,0,0,0,0,0,0,0,0,0,0,0,0,0,0,0,0,0,0,0,0,0,0,0,0,0,0,0,0,0,0,0,0,0,0,0,-0.3021,-0.3022,0,-0.3058,-0.3058,-0.3059,-0.3018,-0.3017,-0.3016,-0.3015,-0.2959,-0.2959,-0.2959,0,0,0,0,0,0,0,0,0,0,0,0,0,-0.2907,-0.2909,-0.3021,-0.3022,-0.3023,-0.3058,-0.3058,-0.3059,-0.3019,-0.3017,-0.3016,-0.3014,-0.2959,-0.2959,-0.2959,0,0,0,0,0,0,0,0,0,0,0,0,0,-0.2948,-0.2909,-0.3021,-0.301,-0.3009,-0.3058,-0.3058,-0.3059,-0.3019,-0.3017,-0.3015,-0.3014,-0.296,-0.2959,-0.2959,-0.2991,0,0,-0.2957,-0.2957,0,0,0,0,0,0,0,0,-0.2946,-0.2952,-0.301,-0.3011,-0.301,-0.3035,-0.2998,-0.3033,-0.3019,-0.3011,-0.3015,-0.3013,-0.298,-0.2978,-0.2985,-0.2989,-0.2986,-0.2957,-0.2957,-0.2956,-0.2956,0,0,0,0,0,0,0,-0.2943,-0.295,-0.3032,-0.3012,-0.3012,-0.3,-0.3004,-0.3005,-0.3001,-0.3012,-0.301,-0.3021,-0.2978,-0.2985,-0.2983,-0.2985,-0.2957,-0.2956,-0.2956,-0.2956,-0.2998,-0.2999,0,0,0,0,0,0,-0.2949,-0.2948,-0.3031,-0.3033,-0.2977,-0.3004,-0.3008,-0.3026,-0.3003,-0.2999,-0.3022,-0.3019,-0.2987,-0.2984,-0.2981,-0.3,-0.2956,-0.2956,-0.2956,-0.2996,-0.2998,-0.3,0,0,0,0,0,0,-0.2946,-0.2956,-0.3029,-0.2993,-0.3002,-0.3008,-0.3029,-0.3028,-0.3027,-0.3012,-0.3006,-0.3022,-0.2986,-0.2981,-0.2981,-0.2998,-0.2956,-0.2955,-0.2995,-0.2997,-0.2999,-0.3051,0,0,0,0,0,0,-0.2943,-0.2955,-0.2964,-0.2994,-0.3005,-0.3059,-0.3031,-0.303,-0.3039,-0.3034,-0.301,-0.3004,-0.2984,-0.2982,-0.2981,-0.2997,-0.2955,-0.2993,-0.2996,-0.2998,-0.3047,-0.3054,-0.3061,0,0,0,0,0,-0.2939,-0.296,-0.2964,-0.2974,-0.3019,-0.306,-0.3064,-0.3059,-0.304,-0.3049,-0.3032,-0.3004,-0.2998,-0.2983,-0.2981,-0.2997,-0.2991,-0.2995,-0.2998,-0.3044,-0.3053,-0.306,0,0,0,0,0,0,-0.2911,-0.296,-0.2964,-0.2997,-0.3027,-0.3054,-0.3062,-0.3064,-0.306,-0.3048,-0.3022,-0.3016,-0.3024,-0.3009,-0.2994,-0.3019,-0.2991,-0.2994,-0.3027,-0.3035,-0.3041,-0.3034,-0.2954,0,0,0,0,0,-0.2913,-0.2938,-0.2984,-0.3007,-0.3025,-0.3044,-0.3057,-0.3062,-0.3069,-0.3065,-0.3051,-0.3039,-0.3041,-0.3034,-0.3033,-0.3047,-0.3014,-0.3057,-0.3064,-0.307,-0.3064,-0.3043,-0.3047,-0.301,-0.301,-0.301,0,0,-0.2906,-0.2937,-0.2949,-0.3002,-0.302,-0.3058,-0.3046,-0.3074,-0.3096,-0.3061,-0.3071,-0.3062,-0.3051,-0.3066,-0.3068,-0.3051,-0.3063,-0.3074,-0.3079,-0.307,-0.3047,-0.305,-0.3053,-0.3012,-0.3012,-0.3012,0,0,-0.2911,-0.2936,-0.2962,-0.2996,-0.304,-0.3061,-0.3072,-0.3106,-0.3108,-0.3132,-0.3111,-0.3112,-0.3114,-0.3109,-0.3108,-0.3153,-0.3102,-0.3155,-0.3177,-0.3158,-0.316,-0.3161,-0.3118,-0.3115,-0.3155,-0.3155,-0.3155,0,-0.2898,-0.2942,-0.2974,-0.3014,-0.3039,-0.3066,-0.31,-0.3124,-0.3149,-0.3152,-0.3138,-0.3144,-0.3135,-0.315,-0.3166,-0.3166,-0.3135,-0.3146,-0.3164,-0.3165,-0.3166,-0.3121,-0.3117,-0.3158,-0.3157,-0.3157,-0.3157,0,-0.2928,-0.2965,-0.2984,-0.3044,-0.3077,-0.3111,-0.3158,-0.3181,-0.3186,-0.32,-0.3213,-0.3205,-0.3201,-0.321,-0.3201,-0.321,-0.318,-0.3176,-0.3139,-0.3172,-0.3123,-0.3118,-0.3162,-0.3161,-0.316,-0.3159,0,0,-0.2881,-0.2985,-0.2988,-0.3019,-0.3094,-0.3122,-0.3173,-0.3218,-0.3233,-0.3253,-0.3262,-0.3277,-0.3261,-0.3258,-0.3248,-0.3237,-0.3219,-0.321,-0.3207,-0.3156,-0.3153,-0.3064,-0.305,-0.3214,-0.3214,-0.3214,-0.3113,0,-0.2886,-0.296,-0.3013,-0.3071,-0.3111,-0.3161,-0.3203,-0.3246,-0.3267,-0.3286,-0.3287,-0.3291,-0.3285,-0.3276,-0.3269,-0.3241,-0.3209,-0.3245,-0.3136,-0.3132,-0.3042,-0.3043,-0.2931,-0.2827,-0.3108,-0.3107,-0.3107,0,-0.2887,-0.2938,-0.3,-0.3085,-0.3105,-0.3141,-0.3195,-0.324,-0.3286,-0.3299,-0.331,-0.3308,-0.331,-0.329,-0.3244,-0.3265,-0.3207,-0.3175,-0.317,-0.3063,-0.3034,-0.2841,-0.2806,-0.279,-0.3098,-0.3099,-0.31,0,-0.2821,-0.2922,-0.2964,-0.2995,-0.31,-0.3122,-0.3167,-0.3227,-0.3255,-0.3297,-0.3304,-0.3315,-0.3297,-0.3262,-0.3206,-0.3221,-0.3131,-0.3143,-0.2998,-0.2991,-0.2861,-0.2842,-0.2786,-0.3078,-0.3078,-0.3078,-0.3079,0,-0.2798,-0.2826,-0.2934,-0.2955,-0.299,-0.3079,-0.3109,-0.316,-0.3221,-0.3238,-0.3291,-0.3287,-0.3286,-0.3243,-0.32,-0.3077,-0.3119,-0.2988,-0.2958,-0.2876,-0.286,-0.2811,-0.2842,-0.3074,-0.3075,-0.3076,-0.3077,0,-0.2707,-0.2789,-0.2834,-0.2935,-0.296,-0.2977,-0.3065,-0.3087,-0.3163,-0.3184,-0.3195,-0.3247,-0.3196,-0.3167,-0.3094,-0.3036,-0.2894,-0.2885,-0.2777,-0.2736,-0.2596,-0.2634,-0.2531,-0.2456,-0.2719,-0.2716,-0.2713,0,-0.2664,-0.2682,-0.2781,-0.2797,-0.2835,-0.2884,-0.2914,-0.3026,-0.3057,-0.3145,-0.314,-0.3126,-0.3075,-0.2952,-0.2859,-0.2738,-0.2752,-0.2569,-0.2581,-0.2557,-0.2578,-0.2615,-0.2563,-0.2427,-0.2422,-0.2418,-0.2415,0,-0.2557,-0.2595,-0.2629,-0.2672,-0.2704,-0.2743,-0.2801,-0.2822,-0.2944,-0.2966,-0.2973,-0.2944,-0.2853,-0.2698,-0.2566,-0.2489,-0.2519,-0.2487,-0.2493,-0.2363,-0.2367,-0.229,-0.2524,-0.2382,-0.2386,-0.2388,-0.239,-0.2391,-0.2446,-0.2443,-0.2494,-0.2515,-0.2552,-0.2563,-0.2541,-0.2619,-0.2634,-0.2638,-0.2736,-0.266,-0.2593,-0.2392,-0.2309,-0.2162,-0.2239,-0.2113,-0.2163,-0.2204,-0.2125,-0.2274,-0.2088,-0.209,-0.2091,-0.2092,-0.2093,0,-0.2295,-0.2315,-0.2333,-0.2353,-0.2323,-0.2399,-0.2426,-0.2374,-0.2328,-0.2391,-0.2365,-0.2325,-0.2168,-0.2126,-0.1993,-0.1888,-0.1848,-0.1856,-0.1897,-0.1859,-0.1997,-0.1978,-0.1722,-0.1722,-0.1722,-0.1722,-0.1722,-0.1722,-0.2217,-0.2182,-0.2202,-0.2109,-0.2112,-0.2013,-0.1986,-0.1936,-0.1942,-0.188,-0.1902,-0.1964,-0.1965,-0.2068,-0.1911,-0.1802,-0.1768,-0.1702,-0.1738,-0.1873,-0.1903,-0.1931,-0.1919,-0.1655,-0.1656,-0.1528,-0.1527,-0.1526]},{"header":{"parameterUnit":"m.s-1","parameterCategory":2,"la1":30.2991,"la2":30.254,"lo1":-89.0895,"lo2":-89.0444,"dy":0.0017,"dx":0.0017,"nx":28,"ny":28,"refTime":"2025-12-05T03:00:00:Z","depth":"0","parameterNumber":3,"parameterNumberName":"V-component_of_CURRENTS"},"data":[0,0,0,0,0,0,0,0,0,0,0,0,0,0,0,0,0,0,0,0,0,0,0,0,0,0,0,0,0,0,0,0,0,0,0,0,0,0,0,0,0,0,0,0,0,0,0,0,0,0,0,0,0,0,0,0,0,0,-0.0357,-0.0356,0,-0.0254,-0.0253,-0.0251,-0.0179,-0.0179,-0.0179,-0.0178,-0.0025,-0.0021,-0.0018,0,0,0,0,0,0,0,0,0,0,0,0,0,-0.0442,-0.0441,-0.0357,-0.0356,-0.0355,-0.0254,-0.0252,-0.0251,-0.0179,-0.0179,-0.0179,-0.0178,-0.0026,-0.0022,-0.0017,0,0,0,0,0,0,0,0,0,0,0,0,0,-0.0377,-0.044,-0.0357,-0.0308,-0.0303,-0.0254,-0.0252,-0.025,-0.018,-0.0179,-0.0178,-0.0178,-0.0028,-0.0022,-0.0017,0.0007,0,0,0.0,0.0003,0,0,0,0,0,0,0,0,-0.0381,-0.0373,-0.0317,-0.0312,-0.0306,-0.0231,-0.0226,-0.0163,-0.018,-0.0224,-0.0178,-0.0178,-0.0091,-0.008,-0.006,0.0014,0.0021,0.0001,0.0004,0.0007,0.0008,0,0,0,0,0,0,0,-0.0385,-0.0377,-0.0314,-0.0315,-0.0309,-0.0275,-0.0265,-0.0214,-0.0159,-0.022,-0.0215,-0.0207,-0.0087,-0.0065,-0.0055,0.0023,0.0001,0.0006,0.0009,0.0011,0.0141,0.0141,0,0,0,0,0,0,-0.0405,-0.0382,-0.0317,-0.0311,-0.0345,-0.0274,-0.0263,-0.0254,-0.0161,-0.0147,-0.0208,-0.0204,-0.0075,-0.0062,-0.005,-0.0014,0.0007,0.0012,0.0015,0.0141,0.0141,0.0141,0,0,0,0,0,0,-0.0407,-0.04,-0.0321,-0.0346,-0.0333,-0.0274,-0.0263,-0.0252,-0.023,-0.0152,-0.0137,-0.0198,-0.0074,-0.0058,-0.0005,-0.0007,0.0014,0.002,0.0141,0.0141,0.0141,0.0057,0,0,0,0,0,0,-0.041,-0.0402,-0.0403,-0.0347,-0.0333,-0.0302,-0.0264,-0.025,-0.0227,-0.0221,-0.0139,-0.0124,-0.0073,-0.0014,0.0,0.0001,0.0024,0.0141,0.0141,0.0141,0.006,0.0054,0.0049,0,0,0,0,0,-0.0413,-0.0422,-0.0404,-0.0396,-0.0337,-0.0302,-0.0292,-0.0246,-0.0227,-0.0223,-0.0164,-0.0126,-0.0003,-0.001,0.0007,0.0009,0.0141,0.0141,0.0141,0.0062,0.0055,0.005,0,0,0,0,0,0,-0.0459,-0.0413,-0.0393,-0.0387,-0.0352,-0.0291,-0.0285,-0.0253,-0.0204,-0.0198,-0.0124,-0.0105,-0.0062,-0.0014,-0.0023,0.0048,0.0075,0.0078,0.0009,0.0003,-0.0002,-0.0023,0.0029,0,0,0,0,0,-0.0472,-0.0466,-0.0416,-0.0412,-0.0398,-0.0343,-0.0324,-0.0294,-0.0243,-0.0221,-0.0164,-0.0101,-0.0048,-0.0014,0.0037,0.0079,0.0133,0.0092,0.0086,0.0082,0.0076,0.0155,0.0157,0.0142,0.0142,0.0142,0,0,-0.0489,-0.0464,-0.046,-0.0421,-0.039,-0.0379,-0.033,-0.0309,-0.0293,-0.0212,-0.0175,-0.0121,-0.0043,0.0,0.0025,0.0042,0.0115,0.0082,0.0077,0.0074,0.0156,0.0157,0.0159,0.0142,0.0142,0.0142,0,0,-0.0528,-0.0499,-0.0509,-0.0486,-0.0449,-0.0411,-0.041,-0.0353,-0.0322,-0.0281,-0.0221,-0.0166,-0.0086,-0.0028,0.0012,0.0012,0.008,0.0025,-0.0009,0.0067,0.0069,0.0071,0.0141,0.015,0.0029,0.0029,0.0029,0,-0.0552,-0.0555,-0.0508,-0.0513,-0.0501,-0.0432,-0.044,-0.0397,-0.033,-0.0301,-0.0282,-0.0158,-0.0098,-0.0031,-0.0034,0.0,0.005,0.0004,0.0059,0.0063,0.0067,0.0138,0.0149,0.0025,0.0026,0.0026,0.0026,0,-0.0598,-0.06,-0.0605,-0.0586,-0.0565,-0.0561,-0.05,-0.0469,-0.0423,-0.0371,-0.0303,-0.0218,-0.014,-0.0116,-0.0075,-0.002,0.0009,0.0036,0.007,0.0063,0.0139,0.0152,0.0019,0.0021,0.0022,0.0023,0,0,-0.0649,-0.0641,-0.0642,-0.065,-0.0605,-0.0592,-0.0563,-0.051,-0.0482,-0.041,-0.0365,-0.0276,-0.0221,-0.0174,-0.0109,-0.0048,0.002,-0.0006,-0.0,0.0054,0.0185,0.0233,0.0253,0.0054,0.0055,0.0057,0.0227,0,-0.0698,-0.074,-0.0708,-0.073,-0.0745,-0.0674,-0.0653,-0.0593,-0.0522,-0.0458,-0.0355,-0.0293,-0.0243,-0.0209,-0.0137,-0.0019,0.005,-0.0029,0.0192,0.0199,0.0235,0.0269,0.0325,0.0483,0.024,0.0242,0.0244,0,-0.0751,-0.0772,-0.0817,-0.0809,-0.0805,-0.0801,-0.0743,-0.0711,-0.0598,-0.0543,-0.045,-0.0363,-0.0254,-0.0219,-0.0015,-0.007,0.0045,0.0134,0.0144,0.0227,0.0272,0.0453,0.0517,0.0697,0.0265,0.0263,0.0262,0,-0.0822,-0.084,-0.0882,-0.0881,-0.0861,-0.0857,-0.0831,-0.0741,-0.0707,-0.0591,-0.0546,-0.0401,-0.0323,-0.0167,0.0026,0.0007,0.0253,0.0261,0.0416,0.0421,0.0533,0.0544,0.079,0.0403,0.0402,0.0402,0.0401,0,-0.0889,-0.0917,-0.0922,-0.0946,-0.098,-0.0932,-0.0929,-0.0874,-0.0787,-0.0739,-0.0598,-0.052,-0.031,-0.0138,0.0026,0.0273,0.0268,0.0421,0.0474,0.0505,0.0511,0.0724,0.0781,0.0408,0.0407,0.0406,0.0405,0,-0.0961,-0.0965,-0.1013,-0.1018,-0.102,-0.1043,-0.1012,-0.0997,-0.0904,-0.0833,-0.0802,-0.0599,-0.0368,-0.0138,0.0134,0.0279,0.0628,0.0588,0.0604,0.0656,0.0943,0.0992,0.1278,0.1393,0.0783,0.0785,0.0787,0,-0.1002,-0.1039,-0.1081,-0.1116,-0.1122,-0.1141,-0.1149,-0.1072,-0.1044,-0.0871,-0.0839,-0.0606,-0.0409,0.0019,0.0313,0.0634,0.0761,0.0853,0.0825,0.0983,0.1079,0.1108,0.1185,0.0947,0.095,0.0953,0.0955,0,-0.1076,-0.1091,-0.1132,-0.1215,-0.1246,-0.1269,-0.1265,-0.1261,-0.1146,-0.1045,-0.0865,-0.0689,-0.026,0.0139,0.0544,0.0736,0.0995,0.0913,0.1093,0.1242,0.1279,0.1405,0.08,0.0978,0.0975,0.0974,0.0972,0.0971,-0.1118,-0.1173,-0.1233,-0.1302,-0.1344,-0.1375,-0.1381,-0.1336,-0.1262,-0.1071,-0.0898,-0.0572,-0.0011,0.0584,0.0798,0.1261,0.1202,0.1395,0.1447,0.1467,0.1566,0.0997,0.1216,0.1215,0.1215,0.1214,0.1213,0,-0.1169,-0.123,-0.1313,-0.1388,-0.1442,-0.1439,-0.1435,-0.1388,-0.1284,-0.1055,-0.0824,-0.0165,0.0393,0.0895,0.1532,0.178,0.1833,0.1905,0.1977,0.2033,0.1567,0.1562,0.1846,0.1846,0.1846,0.1845,0.1845,0.1845,-0.1196,-0.1289,-0.1338,-0.1445,-0.1491,-0.1514,-0.1502,-0.1392,-0.1218,-0.081,-0.0418,-0.0103,0.0617,0.1634,0.2214,0.2271,0.2481,0.2469,0.2571,0.2254,0.221,0.2168,0.2181,0.259,0.2591,0.3039,0.3043,0.3047]}],[{"header":{"parameterUnit":"m.s-1","parameterCategory":2,"la1":30.2991,"la2":30.254,"lo1":-89.0895,"lo2":-89.0444,"dy":0.0017,"dx":0.0017,"nx":28,"ny":28,"refTime":"2025-12-05T03:00:00:Z","depth":"2","parameterNumber":2,"parameterNumberName":"U-component_of_CURRENTS"},"data":[0,0,0,0,0,0,0,0,0,0,0,0,0,0,0,0,0,0,0,0,0,0,0,0,0,0,0,0,0,0,0,0,0,0,0,0,0,0,0,0,0,0,0,0,0,0,0,0,0,0,0,0,0,0,0,0,0,0,-0.2628,-0.2629,0,-0.2661,-0.2661,-0.2662,-0.2635,-0.2634,-0.2633,-0.2632,-0.2609,-0.2609,-0.2609,0,0,0,0,0,0,0,0,0,0,0,0,0,-0.255,-0.2551,-0.2628,-0.2629,-0.263,-0.2661,-0.2661,-0.2662,-0.2635,-0.2634,-0.2633,-0.2632,-0.2609,-0.2609,-0.2609,0,0,0,0,0,0,0,0,0,0,0,0,0,-0.2581,-0.2552,-0.2628,-0.2622,-0.2622,-0.2661,-0.2661,-0.2662,-0.2635,-0.2634,-0.2633,-0.2631,-0.2609,-0.2609,-0.2609,-0.2638,0,0,-0.261,-0.2611,0,0,0,0,0,0,0,0,-0.2579,-0.2583,-0.2622,-0.2623,-0.2623,-0.2645,-0.2625,-0.2652,-0.2636,-0.2628,-0.2632,-0.2631,-0.2619,-0.2618,-0.2624,-0.2637,-0.2636,-0.261,-0.2611,-0.2611,-0.2611,0,0,0,0,0,0,0,-0.2577,-0.2582,-0.2639,-0.2623,-0.2624,-0.2621,-0.2623,-0.263,-0.2627,-0.2628,-0.2627,-0.2635,-0.2618,-0.2624,-0.2623,-0.2635,-0.261,-0.2611,-0.2611,-0.2611,-0.2671,-0.2673,0,0,0,0,0,0,-0.258,-0.258,-0.2638,-0.264,-0.26,-0.2623,-0.2626,-0.2637,-0.2628,-0.2627,-0.2636,-0.2634,-0.2624,-0.2623,-0.2622,-0.2656,-0.2611,-0.2611,-0.2611,-0.267,-0.2671,-0.2673,0,0,0,0,0,0,-0.2578,-0.2585,-0.2636,-0.2612,-0.2619,-0.2626,-0.2639,-0.2638,-0.2643,-0.2636,-0.2632,-0.2641,-0.2623,-0.2622,-0.2633,-0.2655,-0.2611,-0.2611,-0.2668,-0.267,-0.2672,-0.2723,0,0,0,0,0,0,-0.2576,-0.2584,-0.259,-0.2613,-0.2621,-0.2662,-0.264,-0.264,-0.2652,-0.2649,-0.2639,-0.2635,-0.2622,-0.2633,-0.2633,-0.2654,-0.2612,-0.2666,-0.2669,-0.2672,-0.2719,-0.2726,-0.2732,0,0,0,0,0,-0.2573,-0.2587,-0.259,-0.2597,-0.263,-0.2663,-0.2667,-0.2665,-0.2653,-0.2662,-0.2656,-0.2635,-0.265,-0.2634,-0.2635,-0.2656,-0.2665,-0.2668,-0.2671,-0.2716,-0.2725,-0.2732,0,0,0,0,0,0,-0.2553,-0.2587,-0.259,-0.2613,-0.2638,-0.266,-0.2667,-0.2672,-0.2676,-0.2669,-0.2654,-0.2651,-0.267,-0.266,-0.2644,-0.2683,-0.2655,-0.2658,-0.2689,-0.2697,-0.2703,-0.2695,-0.2612,0,0,0,0,0,-0.2555,-0.2571,-0.2606,-0.2622,-0.2637,-0.2654,-0.2666,-0.2672,-0.2683,-0.2683,-0.2679,-0.2677,-0.2687,-0.2688,-0.2692,-0.2715,-0.2688,-0.273,-0.2736,-0.2742,-0.2737,-0.2727,-0.2731,-0.2684,-0.2683,-0.2683,0,0,-0.255,-0.2571,-0.2579,-0.2618,-0.2634,-0.2667,-0.2657,-0.2682,-0.2706,-0.2681,-0.2702,-0.2701,-0.2698,-0.2722,-0.273,-0.2714,-0.2741,-0.2746,-0.2751,-0.2742,-0.2731,-0.2735,-0.2739,-0.2686,-0.2685,-0.2685,0,0,-0.2552,-0.257,-0.2588,-0.2617,-0.2653,-0.2673,-0.2684,-0.2715,-0.2722,-0.2752,-0.274,-0.2751,-0.2765,-0.2768,-0.2771,-0.2819,-0.2777,-0.2824,-0.2848,-0.2839,-0.2842,-0.2845,-0.2809,-0.2808,-0.2826,-0.2826,-0.2826,0,-0.2544,-0.2574,-0.2598,-0.263,-0.2653,-0.2678,-0.2709,-0.2733,-0.2763,-0.2772,-0.2763,-0.2789,-0.2787,-0.2813,-0.283,-0.2832,-0.2809,-0.2816,-0.2846,-0.2848,-0.285,-0.2812,-0.2811,-0.2829,-0.2828,-0.2828,-0.2828,0,-0.2564,-0.2593,-0.2608,-0.2656,-0.2688,-0.2718,-0.2762,-0.2789,-0.2803,-0.282,-0.2847,-0.285,-0.2858,-0.287,-0.2864,-0.2885,-0.2857,-0.2855,-0.2821,-0.2857,-0.2816,-0.2813,-0.2833,-0.2832,-0.2831,-0.283,0,0,-0.2523,-0.2606,-0.2609,-0.2636,-0.2704,-0.2729,-0.2782,-0.2828,-0.2851,-0.2879,-0.2899,-0.2926,-0.2918,-0.2921,-0.2918,-0.2915,-0.291,-0.2892,-0.289,-0.2847,-0.2868,-0.2778,-0.2766,-0.2911,-0.2911,-0.2911,-0.283,0,-0.2526,-0.2584,-0.2628,-0.2682,-0.2714,-0.2766,-0.281,-0.2857,-0.2887,-0.2916,-0.2929,-0.2946,-0.2942,-0.2943,-0.2944,-0.2925,-0.2906,-0.2931,-0.2846,-0.2843,-0.2753,-0.2761,-0.2565,-0.2471,-0.2827,-0.2827,-0.2826,0,-0.2521,-0.2563,-0.2615,-0.2692,-0.2711,-0.2748,-0.281,-0.2857,-0.2914,-0.2936,-0.296,-0.2967,-0.2981,-0.2965,-0.2938,-0.2953,-0.291,-0.2886,-0.2882,-0.2777,-0.2749,-0.2495,-0.2452,-0.2821,-0.2821,-0.2822,-0.2822,0,-0.2462,-0.2548,-0.2585,-0.2613,-0.2708,-0.2735,-0.2782,-0.285,-0.2883,-0.2941,-0.2956,-0.298,-0.2976,-0.2953,-0.2913,-0.2924,-0.2861,-0.287,-0.2742,-0.2734,-0.2537,-0.2512,-0.2829,-0.2829,-0.2829,-0.2829,-0.283,0,-0.2438,-0.2463,-0.2559,-0.2577,-0.2613,-0.2698,-0.2736,-0.2792,-0.2861,-0.2885,-0.2949,-0.2953,-0.2971,-0.2944,-0.2909,-0.2807,-0.2854,-0.2733,-0.2708,-0.2549,-0.2527,-0.2812,-0.2811,-0.2826,-0.2827,-0.2828,-0.2828,0,-0.2355,-0.2426,-0.2465,-0.2559,-0.2585,-0.2605,-0.2697,-0.2723,-0.2808,-0.2839,-0.2855,-0.2921,-0.2886,-0.2876,-0.2827,-0.2777,-0.2709,-0.2654,-0.2455,-0.2408,-0.2587,-0.259,-0.2508,-0.2504,-0.2501,-0.2498,-0.2496,0,-0.2315,-0.2329,-0.2417,-0.2433,-0.2469,-0.2522,-0.2553,-0.2667,-0.27,-0.2801,-0.2798,-0.2807,-0.2762,-0.2671,-0.2594,-0.2494,-0.2592,-0.2265,-0.2258,-0.257,-0.2554,-0.2563,-0.257,-0.2011,-0.2005,-0.2,-0.1996,0,-0.222,-0.2252,-0.2282,-0.2316,-0.2349,-0.2388,-0.2447,-0.2465,-0.259,-0.2614,-0.2626,-0.2602,-0.254,-0.2357,-0.2257,-0.2184,-0.2276,-0.216,-0.2523,-0.2135,-0.2099,-0.2085,-0.2109,-0.1952,-0.1956,-0.1959,-0.1962,-0.1964,-0.2126,-0.2119,-0.2159,-0.2173,-0.2211,-0.2218,-0.2193,-0.2263,-0.2274,-0.2273,-0.2375,-0.2272,-0.2259,-0.1994,-0.1888,-0.1816,-0.1973,-0.1893,-0.1909,-0.193,-0.19,-0.1861,-0.1662,-0.1665,-0.1667,-0.1669,-0.1671,0,-0.1995,-0.2002,-0.2012,-0.2022,-0.1993,-0.2068,-0.2087,-0.2029,-0.1971,-0.2004,-0.1976,-0.1765,-0.1636,-0.1633,-0.1447,-0.1413,-0.1411,-0.1361,-0.1363,-0.1407,-0.1446,-0.1393,-0.1019,-0.1017,-0.1015,-0.1014,0,0,-0.1929,-0.1884,-0.1888,-0.1792,-0.1795,-0.1703,-0.1672,-0.1611,-0.159,-0.1479,-0.143,-0.1536,-0.1571,-0.1296,-0.1232,-0.1095,-0.1239,-0.1037,-0.1557,-0.1601,-0.1638,-0.1744,-0.171,0,0,0,0,0]},{"header":{"parameterUnit":"m.s-1","parameterCategory":2,"la1":30.2991,"la2":30.254,"lo1":-89.0895,"lo2":-89.0444,"dy":0.0017,"dx":0.0017,"nx":28,"ny":28,"refTime":"2025-12-05T03:00:00:Z","depth":"2","parameterNumber":3,"parameterNumberName":"V-component_of_CURRENTS"},"data":[0,0,0,0,0,0,0,0,0,0,0,0,0,0,0,0,0,0,0,0,0,0,0,0,0,0,0,0,0,0,0,0,0,0,0,0,0,0,0,0,0,0,0,0,0,0,0,0,0,0,0,0,0,0,0,0,0,0,-0.0272,-0.0271,0,-0.0186,-0.0185,-0.0183,-0.0121,-0.012,-0.012,-0.012,0.0015,0.0018,0.0021,0,0,0,0,0,0,0,0,0,0,0,0,0,-0.0336,-0.0335,-0.0272,-0.0271,-0.027,-0.0186,-0.0184,-0.0183,-0.0121,-0.012,-0.012,-0.012,0.0014,0.0018,0.0022,0,0,0,0,0,0,0,0,0,0,0,0,0,-0.0283,-0.0335,-0.0272,-0.023,-0.0226,-0.0186,-0.0184,-0.0183,-0.0121,-0.012,-0.012,-0.0119,0.0013,0.0017,0.0022,0.0042,0,0,0.0037,0.0039,0,0,0,0,0,0,0,0,-0.0286,-0.0281,-0.0237,-0.0233,-0.0228,-0.0165,-0.0158,-0.0106,-0.0121,-0.0159,-0.012,-0.0119,-0.0042,-0.0033,-0.0016,0.0048,0.0054,0.0038,0.0041,0.0043,0.0044,0,0,0,0,0,0,0,-0.029,-0.0284,-0.0236,-0.0236,-0.0231,-0.02,-0.0192,-0.0147,-0.0102,-0.0155,-0.0151,-0.0145,-0.0039,-0.0021,-0.0012,0.0056,0.0037,0.0042,0.0045,0.0047,0.0159,0.0159,0,0,0,0,0,0,-0.0307,-0.0287,-0.0239,-0.0233,-0.0258,-0.0199,-0.0191,-0.0184,-0.0104,-0.0092,-0.0145,-0.0142,-0.0029,-0.0018,-0.0007,0.0024,0.0043,0.0047,0.005,0.0159,0.0159,0.0159,0,0,0,0,0,0,-0.0309,-0.0304,-0.0242,-0.026,-0.025,-0.0199,-0.0193,-0.0183,-0.0164,-0.0097,-0.0083,-0.0137,-0.0029,-0.0014,0.0032,0.0029,0.0049,0.0054,0.0159,0.0159,0.0159,0.0084,0,0,0,0,0,0,-0.0311,-0.0305,-0.0308,-0.0261,-0.025,-0.0227,-0.0193,-0.0182,-0.0162,-0.0157,-0.0085,-0.0072,-0.0027,0.0024,0.0036,0.0036,0.0058,0.0159,0.0159,0.0159,0.0086,0.0081,0.0077,0,0,0,0,0,-0.0314,-0.0324,-0.0309,-0.0303,-0.0256,-0.0228,-0.0219,-0.0179,-0.0163,-0.016,-0.0108,-0.0074,0.0034,0.0028,0.0042,0.0044,0.0159,0.0159,0.0159,0.0088,0.0082,0.0077,0,0,0,0,0,0,-0.0354,-0.0317,-0.03,-0.0298,-0.0269,-0.0218,-0.0214,-0.0186,-0.0144,-0.0138,-0.0073,-0.0056,-0.0019,0.0024,0.0016,0.0077,0.0102,0.0105,0.0043,0.0038,0.0033,0.0015,0.0062,0,0,0,0,0,-0.0365,-0.0363,-0.0321,-0.0321,-0.031,-0.0263,-0.0248,-0.0221,-0.0178,-0.0159,-0.0109,-0.0054,-0.0007,0.0023,0.0067,0.0103,0.0151,0.0114,0.011,0.0105,0.0102,0.017,0.0171,0.016,0.016,0.016,0,0,-0.0381,-0.0361,-0.0359,-0.0329,-0.0303,-0.0295,-0.0252,-0.0235,-0.0223,-0.0151,-0.012,-0.0071,-0.0003,0.0034,0.0055,0.0071,0.0134,0.0105,0.0101,0.01,0.017,0.0171,0.0172,0.016,0.016,0.016,0,0,-0.0416,-0.0394,-0.0405,-0.0386,-0.0356,-0.0324,-0.0323,-0.0276,-0.0249,-0.0215,-0.0161,-0.0112,-0.0043,0.0008,0.0043,0.0042,0.0102,0.0054,0.0024,0.009,0.0092,0.0093,0.0153,0.0161,0.0058,0.0058,0.0058,0,-0.0438,-0.0444,-0.0404,-0.0411,-0.0402,-0.0343,-0.0352,-0.0315,-0.0258,-0.0235,-0.0216,-0.0108,-0.0054,0.0005,0.0002,0.0032,0.0075,0.0036,0.0083,0.0086,0.0089,0.0151,0.016,0.0054,0.0054,0.0055,0.0055,0,-0.0479,-0.0484,-0.049,-0.0477,-0.0461,-0.046,-0.0408,-0.0383,-0.0343,-0.0299,-0.024,-0.0163,-0.0094,-0.0072,-0.0035,0.0014,0.0039,0.0063,0.0093,0.0086,0.0151,0.0162,0.0049,0.005,0.0051,0.0052,0,0,-0.0525,-0.0522,-0.0524,-0.0533,-0.0497,-0.049,-0.0466,-0.0423,-0.0403,-0.0337,-0.0301,-0.0219,-0.017,-0.0127,-0.0068,-0.0012,0.0046,0.0026,0.0031,0.0077,0.0188,0.0213,0.0228,0.0076,0.0078,0.0079,0.0224,0,-0.0569,-0.0609,-0.0584,-0.0609,-0.0624,-0.0566,-0.055,-0.0501,-0.0442,-0.0389,-0.0294,-0.0241,-0.0191,-0.016,-0.0094,0.001,0.0073,0.0005,0.0196,0.0202,0.0217,0.0241,0.0203,0.033,0.0235,0.0237,0.0238,0,-0.0616,-0.0638,-0.0681,-0.0682,-0.0681,-0.0681,-0.0639,-0.0614,-0.0519,-0.0473,-0.039,-0.0311,-0.0212,-0.0175,0.0007,-0.004,0.0064,0.0145,0.0154,0.021,0.0247,0.0324,0.0355,0.0258,0.0256,0.0255,0.0254,0,-0.0678,-0.07,-0.0741,-0.0743,-0.0733,-0.0733,-0.0715,-0.0643,-0.0619,-0.052,-0.0484,-0.0353,-0.0283,-0.014,0.0034,0.0022,0.0235,0.0247,0.0372,0.0375,0.0399,0.0401,0.0376,0.0376,0.0376,0.0376,0.0375,0,-0.0737,-0.0766,-0.0776,-0.0801,-0.0838,-0.0801,-0.0807,-0.0763,-0.0695,-0.0661,-0.0533,-0.0467,-0.0274,-0.0123,0.0029,0.024,0.0242,0.0374,0.0418,0.0372,0.037,0.0349,0.0344,0.0381,0.038,0.0379,0.0378,0,-0.0798,-0.0805,-0.0853,-0.0867,-0.0872,-0.0898,-0.0884,-0.0878,-0.0803,-0.0751,-0.0724,-0.0547,-0.0347,-0.0139,0.0106,0.0233,0.0429,0.0504,0.0432,0.0465,0.0525,0.0514,0.0655,0.0657,0.0659,0.066,0.0661,0,-0.0833,-0.0867,-0.0914,-0.0949,-0.0959,-0.0986,-0.1,-0.0944,-0.0927,-0.079,-0.0766,-0.0567,-0.0402,-0.0031,0.0219,0.0498,0.0499,0.0616,0.0588,0.0526,0.0556,0.0542,0.0529,0.0595,0.0595,0.0596,0.0596,0,-0.0896,-0.0912,-0.0952,-0.1033,-0.1069,-0.1101,-0.1109,-0.1113,-0.1027,-0.0948,-0.0803,-0.0657,-0.0303,-0.0001,0.0345,0.0502,0.0565,0.0636,0.0616,0.0519,0.0479,0.0504,0.0492,0.0601,0.06,0.06,0.06,0.06,-0.0932,-0.0981,-0.1038,-0.1106,-0.1154,-0.1194,-0.1205,-0.1177,-0.1125,-0.0974,-0.0842,-0.0581,-0.031,0.0194,0.043,0.0648,0.0647,0.0701,0.0696,0.0691,0.0647,0.0612,0.0751,0.0751,0.0752,0.0752,0.0752,0,-0.0976,-0.1029,-0.1106,-0.1181,-0.1236,-0.1244,-0.1255,-0.1217,-0.1135,-0.0966,-0.0784,-0.0448,-0.0112,0.018,0.0525,0.0724,0.0701,0.0753,0.068,0.0675,0.067,0.0621,0.0721,0.0721,0.0722,0.0722,0,0,-0.1,-0.108,-0.1122,-0.1223,-0.1273,-0.1304,-0.13,-0.1207,-0.1075,-0.0874,-0.0673,-0.043,-0.0086,0.0148,0.0392,0.057,0.0571,0.0586,0.0591,0.047,0.0464,0.0623,0.054,0,0,0,0,0]}],[{"header":{"parameterUnit":"m.s-1","parameterCategory":2,"la1":30.2991,"la2":30.254,"lo1":-89.0895,"lo2":-89.0444,"dy":0.0017,"dx":0.0017,"nx":28,"ny":28,"refTime":"2025-12-05T03:00:00:Z","depth":"4","parameterNumber":2,"parameterNumberName":"U-component_of_CURRENTS"},"data":[0,0,0,0,0,0,0,0,0,0,0,0,0,0,0,0,0,0,0,0,0,0,0,0,0,0,0,0,0,0,0,0,0,0,0,0,0,0,0,0,0,0,0,0,0,0,0,0,0,0,0,0,0,0,0,0,0,0,-0.1816,-0.1816,0,-0.1879,-0.188,-0.1881,-0.1919,-0.1919,-0.1919,-0.192,-0.1982,-0.1984,-0.1985,0,0,0,0,0,0,0,0,0,0,0,0,0,-0.1733,-0.1734,-0.1815,-0.1816,-0.1817,-0.1879,-0.188,-0.1881,-0.1919,-0.1919,-0.1919,-0.192,-0.1982,-0.1984,-0.1985,0,0,0,0,0,0,0,0,0,0,0,0,0,-0.1778,-0.1734,-0.1815,-0.1845,-0.1848,-0.1879,-0.188,-0.1881,-0.1918,-0.1919,-0.1919,-0.192,-0.1981,-0.1983,-0.1985,-0.1988,0,0,-0.1992,-0.1993,0,0,0,0,0,0,0,0,-0.1776,-0.1781,-0.184,-0.1843,-0.1847,-0.1893,-0.1874,-0.1917,-0.1918,-0.189,-0.192,-0.192,-0.1953,-0.1958,-0.1966,-0.1991,-0.1994,-0.1992,-0.1993,-0.1994,-0.1995,0,0,0,0,0,0,0,-0.1772,-0.1779,-0.1839,-0.1841,-0.1845,-0.1857,-0.1864,-0.1882,-0.1917,-0.1893,-0.1896,-0.1906,-0.1955,-0.1964,-0.1968,-0.1995,-0.1992,-0.1994,-0.1995,-0.1996,-0.2109,-0.2111,0,0,0,0,0,0,-0.1767,-0.1776,-0.1837,-0.1841,-0.1814,-0.1859,-0.1866,-0.1876,-0.1917,-0.1924,-0.1905,-0.1907,-0.196,-0.1965,-0.197,-0.2054,-0.1994,-0.1996,-0.1997,-0.2107,-0.2109,-0.2111,0,0,0,0,0,0,-0.1765,-0.1772,-0.1835,-0.1811,-0.182,-0.186,-0.1871,-0.1877,-0.1917,-0.1927,-0.1933,-0.1942,-0.1961,-0.1967,-0.2016,-0.2053,-0.1997,-0.1999,-0.2105,-0.2108,-0.211,-0.2171,0,0,0,0,0,0,-0.1762,-0.1771,-0.1791,-0.1811,-0.1821,-0.1873,-0.1871,-0.1878,-0.1921,-0.1925,-0.196,-0.1964,-0.1962,-0.2013,-0.2018,-0.2055,-0.2,-0.2103,-0.2106,-0.2109,-0.2167,-0.2175,-0.2183,0,0,0,0,0,-0.1759,-0.1779,-0.1792,-0.18,-0.1843,-0.1874,-0.1881,-0.1909,-0.1923,-0.1946,-0.1973,-0.1965,-0.2038,-0.2017,-0.2022,-0.206,-0.2101,-0.2105,-0.2109,-0.2163,-0.2173,-0.2182,0,0,0,0,0,0,-0.1754,-0.1785,-0.18,-0.1829,-0.186,-0.1882,-0.1909,-0.1928,-0.1968,-0.1981,-0.1987,-0.1994,-0.205,-0.2049,-0.2025,-0.2103,-0.2069,-0.2074,-0.2108,-0.2118,-0.2126,-0.2112,-0.2002,0,0,0,0,0,-0.1762,-0.1786,-0.1816,-0.1843,-0.1861,-0.1892,-0.1915,-0.1937,-0.1966,-0.1986,-0.2011,-0.2039,-0.2065,-0.2087,-0.2107,-0.2152,-0.2127,-0.218,-0.2189,-0.2195,-0.2189,-0.2189,-0.2196,-0.2124,-0.2124,-0.2124,0,0,-0.1768,-0.1788,-0.1804,-0.1844,-0.1871,-0.1905,-0.1908,-0.1952,-0.1989,-0.1986,-0.2052,-0.207,-0.2084,-0.2133,-0.2158,-0.2141,-0.2204,-0.22,-0.2206,-0.2196,-0.2194,-0.2201,-0.2207,-0.2127,-0.2126,-0.2126,0,0,-0.178,-0.1812,-0.1834,-0.1866,-0.1914,-0.1935,-0.1956,-0.2,-0.2033,-0.2091,-0.2098,-0.2139,-0.2187,-0.22,-0.2211,-0.2276,-0.2246,-0.2293,-0.2325,-0.2327,-0.2332,-0.2336,-0.2312,-0.2314,-0.2298,-0.2298,-0.2298,0,-0.179,-0.1819,-0.1848,-0.188,-0.1912,-0.1952,-0.1989,-0.2027,-0.2086,-0.2113,-0.2123,-0.2196,-0.2214,-0.2259,-0.2285,-0.2294,-0.2279,-0.2287,-0.2335,-0.2339,-0.2342,-0.2317,-0.2318,-0.2301,-0.2301,-0.2301,-0.23,0,-0.1809,-0.185,-0.1869,-0.1922,-0.1961,-0.2001,-0.2054,-0.2104,-0.215,-0.218,-0.2248,-0.2272,-0.2309,-0.2331,-0.2331,-0.2373,-0.2349,-0.2342,-0.2305,-0.2353,-0.2323,-0.2323,-0.2306,-0.2305,-0.2304,-0.2303,0,0,-0.178,-0.1866,-0.1876,-0.1911,-0.1989,-0.2018,-0.2092,-0.2154,-0.2198,-0.2262,-0.2309,-0.2367,-0.2379,-0.2392,-0.2402,-0.241,-0.2428,-0.2393,-0.2392,-0.2359,-0.2414,-0.2253,-0.2236,-0.2432,-0.2432,-0.2433,-0.2382,0,-0.1788,-0.1849,-0.1895,-0.1966,-0.2001,-0.207,-0.2129,-0.2195,-0.2252,-0.231,-0.2348,-0.2397,-0.2403,-0.2426,-0.244,-0.2433,-0.2432,-0.2441,-0.2381,-0.2378,-0.2221,-0.2232,-0.2435,-0.2382,-0.2381,-0.2381,-0.2381,0,-0.178,-0.1826,-0.1894,-0.1986,-0.2009,-0.2063,-0.2157,-0.2217,-0.2303,-0.2346,-0.2401,-0.2427,-0.2467,-0.246,-0.2463,-0.247,-0.2447,-0.2432,-0.243,-0.2253,-0.2216,-0.2326,-0.2381,-0.2381,-0.2381,-0.2381,-0.2381,0,-0.1721,-0.182,-0.1875,-0.1909,-0.202,-0.2071,-0.2135,-0.2229,-0.2275,-0.2369,-0.24,-0.2453,-0.2474,-0.2471,-0.2451,-0.2463,-0.2426,-0.2436,-0.2263,-0.2251,-0.2386,-0.2382,-0.2421,-0.2421,-0.2421,-0.2422,-0.2422,0,-0.1688,-0.1735,-0.1859,-0.1887,-0.1953,-0.2048,-0.212,-0.2192,-0.2284,-0.2317,-0.2411,-0.2421,-0.2479,-0.2468,-0.245,-0.2338,-0.2423,-0.2253,-0.2223,-0.2413,-0.2413,-0.2385,-0.2381,-0.242,-0.242,-0.242,-0.2421,0,-0.1603,-0.169,-0.1755,-0.1883,-0.1926,-0.1972,-0.2098,-0.2137,-0.2245,-0.2289,-0.2317,-0.2398,-0.2376,-0.2394,-0.2374,-0.2304,-0.2237,-0.2177,-0.2359,-0.2344,-0.2064,-0.2065,-0.1977,-0.1971,-0.1965,-0.1961,-0.1957,0,-0.156,-0.1588,-0.1726,-0.1762,-0.1824,-0.1914,-0.1963,-0.2097,-0.2129,-0.2242,-0.2234,-0.2268,-0.2295,-0.2123,-0.2178,-0.2107,-0.2088,-0.2042,-0.2069,-0.2036,-0.2018,-0.2027,-0.2034,-0.1949,-0.1947,-0.1946,-0.1945,0,-0.1467,-0.1533,-0.1585,-0.1657,-0.1722,-0.178,-0.1863,-0.1868,-0.1999,-0.212,-0.2077,-0.2057,-0.2022,-0.2,-0.1949,-0.1911,-0.207,-0.1987,-0.1998,-0.2023,-0.2001,-0.199,-0.2004,-0.1926,-0.1929,-0.1931,-0.1932,0,-0.1395,-0.1404,-0.148,-0.1524,-0.1601,-0.1609,-0.1677,-0.1702,-0.1751,-0.1883,-0.186,-0.1904,-0.1985,-0.1895,-0.1855,-0.1795,-0.1778,-0.1729,-0.1754,-0.1775,-0.1734,-0.1678,-0.1461,0,0,0,0,0,-0.131,-0.1303,-0.1337,-0.1377,-0.1444,-0.1482,-0.1587,-0.1658,-0.1786,-0.1697,-0.1773,-0.1732,-0.1677,-0.1711,-0.1603,-0.177,-0.1788,-0.1641,-0.1747,-0.1825,-0.1846,-0.1818,0,0,0,0,0,0,-0.1255,-0.1281,-0.1285,-0.1236,-0.1233,-0.1285,-0.1341,-0.1433,-0.1398,-0.1534,-0.1505,-0.1618,-0.1584,-0.1693,-0.1561,-0.157,-0.1599,-0.1686,-0.1681,-0.1813,-0.1833,-0.1849,-0.1828,0,0,0,0,0]},{"header":{"parameterUnit":"m.s-1","parameterCategory":2,"la1":30.2991,"la2":30.254,"lo1":-89.0895,"lo2":-89.0444,"dy":0.0017,"dx":0.0017,"nx":28,"ny":28,"refTime":"2025-12-05T03:00:00:Z","depth":"4","parameterNumber":3,"parameterNumberName":"V-component_of_CURRENTS"},"data":[0,0,0,0,0,0,0,0,0,0,0,0,0,0,0,0,0,0,0,0,0,0,0,0,0,0,0,0,0,0,0,0,0,0,0,0,0,0,0,0,0,0,0,0,0,0,0,0,0,0,0,0,0,0,0,0,0,0,-0.0191,-0.0191,0,-0.0137,-0.0137,-0.0136,-0.0094,-0.0094,-0.0094,-0.0093,0.0007,0.0009,0.0012,0,0,0,0,0,0,0,0,0,0,0,0,0,-0.0219,-0.0219,-0.0191,-0.0191,-0.019,-0.0138,-0.0137,-0.0136,-0.0094,-0.0094,-0.0094,-0.0093,0.0006,0.0009,0.0012,0,0,0,0,0,0,0,0,0,0,0,0,0,-0.0189,-0.0219,-0.0191,-0.0164,-0.0161,-0.0138,-0.0137,-0.0136,-0.0094,-0.0094,-0.0093,-0.0093,0.0005,0.0009,0.0012,0.0027,0,0,0.0024,0.0025,0,0,0,0,0,0,0,0,-0.0191,-0.0188,-0.0169,-0.0166,-0.0163,-0.0124,-0.011,-0.0079,-0.0094,-0.0118,-0.0093,-0.0093,-0.0034,-0.0027,-0.0016,0.0032,0.0036,0.0024,0.0026,0.0028,0.0029,0,0,0,0,0,0,0,-0.0193,-0.019,-0.0168,-0.0168,-0.0165,-0.0142,-0.0137,-0.0104,-0.0076,-0.0116,-0.0113,-0.011,-0.0031,-0.002,-0.0013,0.0038,0.0024,0.0027,0.0029,0.0031,0.0115,0.0115,0,0,0,0,0,0,-0.0205,-0.0192,-0.017,-0.0167,-0.0178,-0.0142,-0.0137,-0.0135,-0.0078,-0.0069,-0.011,-0.0108,-0.0026,-0.0017,-0.0009,0.0012,0.0028,0.0031,0.0033,0.0115,0.0115,0.0115,0,0,0,0,0,0,-0.0206,-0.0204,-0.0172,-0.0179,-0.0174,-0.0142,-0.0141,-0.0134,-0.0124,-0.0074,-0.0065,-0.0107,-0.0025,-0.0014,0.0019,0.0017,0.0033,0.0036,0.0115,0.0115,0.0115,0.0056,0,0,0,0,0,0,-0.0207,-0.0205,-0.0211,-0.018,-0.0174,-0.0165,-0.0141,-0.0134,-0.0123,-0.012,-0.0068,-0.0058,-0.0024,0.0013,0.0022,0.0022,0.0039,0.0115,0.0115,0.0115,0.0058,0.0054,0.005,0,0,0,0,0,-0.0209,-0.022,-0.0211,-0.0209,-0.0182,-0.0166,-0.0161,-0.0135,-0.0124,-0.0123,-0.0086,-0.006,0.002,0.0016,0.0027,0.0027,0.0115,0.0115,0.0115,0.0059,0.0054,0.005,0,0,0,0,0,0,-0.0235,-0.0216,-0.0206,-0.0211,-0.0193,-0.016,-0.016,-0.0141,-0.0112,-0.0108,-0.0059,-0.0047,-0.002,0.0013,0.0007,0.0053,0.0072,0.0074,0.0026,0.0022,0.0018,0.0005,0.0042,0,0,0,0,0,-0.0245,-0.0248,-0.0223,-0.0228,-0.0222,-0.0192,-0.0183,-0.0166,-0.0136,-0.0124,-0.0087,-0.0046,-0.0011,0.0012,0.0045,0.0071,0.0109,0.008,0.0076,0.0073,0.007,0.0124,0.0125,0.0116,0.0116,0.0116,0,0,-0.0258,-0.0248,-0.0249,-0.0234,-0.0219,-0.0217,-0.0185,-0.0178,-0.0172,-0.0117,-0.0098,-0.0061,-0.0008,0.0019,0.0035,0.0048,0.0095,0.0073,0.007,0.0069,0.0125,0.0126,0.0127,0.0116,0.0116,0.0116,0,0,-0.0285,-0.0275,-0.0287,-0.0277,-0.0261,-0.024,-0.0241,-0.021,-0.0193,-0.0171,-0.013,-0.0092,-0.0042,-0.0002,0.0025,0.0023,0.007,0.0032,0.0009,0.0062,0.0063,0.0064,0.011,0.0116,0.0036,0.0035,0.0035,0,-0.0302,-0.0312,-0.0288,-0.0296,-0.0295,-0.0254,-0.0266,-0.0241,-0.0204,-0.0189,-0.0174,-0.0093,-0.0051,-0.0006,-0.0008,0.0015,0.0049,0.0019,0.0056,0.0059,0.0061,0.0108,0.0115,0.0033,0.0033,0.0033,0.0034,0,-0.0334,-0.0345,-0.0352,-0.0349,-0.0342,-0.0346,-0.0313,-0.0298,-0.0272,-0.0242,-0.02,-0.0138,-0.0088,-0.0068,-0.0038,0.0001,0.002,0.004,0.0064,0.0058,0.0108,0.0117,0.0029,0.003,0.003,0.0031,0,0,-0.0365,-0.0375,-0.0378,-0.0391,-0.0373,-0.0372,-0.036,-0.0336,-0.0326,-0.0277,-0.0255,-0.0188,-0.015,-0.0117,-0.0068,-0.002,0.0027,0.0011,0.0015,0.0049,0.0138,0.0115,0.0123,0.0051,0.0053,0.0054,0.0164,0,-0.0399,-0.0437,-0.0425,-0.0454,-0.047,-0.0435,-0.043,-0.0401,-0.0361,-0.0328,-0.0252,-0.0214,-0.0169,-0.0145,-0.009,-0.0005,0.0047,-0.0005,0.0144,0.0149,0.0124,0.0132,0.0058,0.017,0.0172,0.0174,0.0175,0,-0.0433,-0.0456,-0.0498,-0.0515,-0.0518,-0.0526,-0.051,-0.0498,-0.0434,-0.0402,-0.034,-0.0278,-0.0198,-0.0162,-0.0014,-0.0051,0.0035,0.0104,0.0111,0.0116,0.0142,0.018,0.0192,0.019,0.0189,0.0188,0.0187,0,-0.0472,-0.0504,-0.0544,-0.0551,-0.056,-0.057,-0.0567,-0.0525,-0.0514,-0.0445,-0.0423,-0.0318,-0.0263,-0.0144,-0.0001,-0.0005,0.0163,0.0179,0.0244,0.0244,0.0258,0.0255,0.0285,0.0285,0.0285,0.0285,0.0284,0,-0.0509,-0.0541,-0.0571,-0.0595,-0.0639,-0.0624,-0.0647,-0.0621,-0.0581,-0.0564,-0.0467,-0.0419,-0.0256,-0.0138,-0.001,0.014,0.0162,0.0241,0.0271,0.023,0.0223,0.0264,0.026,0.0289,0.0288,0.0287,0.0286,0,-0.0541,-0.0561,-0.0613,-0.0647,-0.0662,-0.0694,-0.0712,-0.0717,-0.0673,-0.0643,-0.0624,-0.0489,-0.0336,-0.0168,0.0034,0.0121,0.0271,0.0323,0.0262,0.0288,0.032,0.0312,0.0401,0.0401,0.0401,0.0401,0.0401,0,-0.0558,-0.059,-0.0659,-0.07,-0.0721,-0.0764,-0.079,-0.0768,-0.0763,-0.0678,-0.0659,-0.0515,-0.0408,-0.0132,0.0032,0.0267,0.0299,0.0367,0.0344,0.0311,0.0333,0.0324,0.0316,0.0401,0.0401,0.0401,0.0401,0,-0.0589,-0.0619,-0.0661,-0.0749,-0.0799,-0.0844,-0.0871,-0.0875,-0.083,-0.0797,-0.0668,-0.0516,-0.0342,-0.0132,0.0047,0.0216,0.0312,0.0368,0.0369,0.0349,0.0313,0.0332,0.0324,0.0402,0.0402,0.0402,0.0402,0,-0.0608,-0.0649,-0.0713,-0.0782,-0.0852,-0.0893,-0.0908,-0.0881,-0.0862,-0.076,-0.0718,-0.0515,-0.0396,-0.0158,0.001,0.0165,0.0202,0.024,0.0249,0.025,0.0165,0.0095,0.0144,0,0,0,0,0,-0.0619,-0.0665,-0.0739,-0.0812,-0.0881,-0.0913,-0.0944,-0.0941,-0.0903,-0.0816,-0.076,-0.0588,-0.0324,-0.0203,-0.0049,-0.0008,0.0207,0.0173,0.0251,0.0404,0.0403,0.0326,0,0,0,0,0,0,-0.0628,-0.0697,-0.0735,-0.0816,-0.0866,-0.0928,-0.0946,-0.0924,-0.0863,-0.0802,-0.0653,-0.0565,-0.0305,-0.0403,-0.0047,-0.0001,0.0064,0.0302,0.0305,0.0404,0.0404,0.0403,0.0324,0,0,0,0,0]}]]